"Pseudo-MPEC" for P116h8d

Created 2020 Oct 27 4:07:17 UT using Find_Orb

Click here for an explanation of pseudo-MPECs

 
 Astrometry: 
     P116h8d  C2020 08 222AT'X.vkYj-#_\kU8O,eZDfL^kNIMajk;K##Go7l:+^`:P5!QT[OF52
     P116h8d  C2020 08 22Aa3f569P[^F,bI.W:Y/_ro*!-86\YQJ@`9qux=(`fj='DPj)_]%CF52
     P116h8d  C2020 08 22^2[Noo%soF3b=/:Zk[q[%Kb$dF)-*pi3eAstrometry^88-8Ko/ZF52
     P116h8d  C2020 09 11.24767 23 21 20.16 +06 47 49.6    ~9IBq 20.5 GVNEOCPG96
     P116h8d  C2020 09 11.25325 23 21 19.92 +06 47 49.0    ~9IBq 21.6 GVNEOCPG96
     P116h8d  C2020 09 11.25884 23 21 19.65 +06 47 49.5    ~9IBq 21.7 GVNEOCPG96
     P116h8d  C2020 09 11.26442 23 21 19.41 +06 47 49.8    ~9IBq 21.7 GVNEOCPG96
     P116h8d  C2020 09 120CKdD,6Ye8_NIt1Xpk58^MEvxn,Y$O^CMkYa0qF^gIXAZk74\L@SF52
     P116h8d  C2020 09 12K=,@#?xR#uZHTAY%A=GDPh%AZm#`txnEoT?rsr$vm^EHY$'TuNyKF52
     P116h8d  C2020 09 12qXF+KJEE9EqGdi@\G=*,R?t3tosu3QArVE=G1GXeay/p,of84`KbF52
     P116h8d  C2020 09 12/g[^TfLC%jyMUE3?afAJ\M?H?-bkpL2+0AL6mIp7HwFvZA]Fc-]jF52
     P116h8d  C2020 09 12+04HU^tgi*.ouVkG@hnBd(dN'/1q6q[$s6bmX+Q@!Lv?qx`9F(XND29
     P116h8d  C2020 09 12FZVMCBy394kfKSY)_0I:7YbRsxV4H\*EX]Yqq$7BXp%q[)1L)D45D29
     P116h8d  C2020 09 12jgt$mP)4Lbq_3CcK?uuElVNW\1Vqt;gHtZR=gL%8em[)!$9FKJN\D29
     P116h8d  C2020 09 15,98WmfsZhGnAG1bNkm^\v]!o]LsebX!7Kgd+V1SQ3d9a/mTmOQIfF51
     P116h8d  C2020 09 15,s#2lhtLFOdK=(0M:cXM(Kh7v_n'.43'8yNt'I,@G=G;%BbP0I`_F51
     P116h8d  C2020 09 15=hGQ!)iUWJO1+RP7MQTtF5Thw^RQ-86$^0\gy7x#@/.L9yjTNjC\F51
     P116h8d  C2020 09 15Xu@dL(#=,]U?vp0tM*]6Ww60AD82htD=o/iQf`]I;TC7$Se+^IAoF51
     P116h8d  C2020 09 16FWYgrSDlxa;a*lMk*v`8?xMc!efCZ2TmTVeaT2_oMFtsE$J+i]2pF51
     P116h8d  C2020 09 16!3[g0oTec.uNoP`/Eh/yb]xf-*\PAHGB[(0Fxd1;L,iu6**\Ln54F51
     P116h8d  C2020 09 16QhT8rjB98i6MLFs$0*?67b1MlpcdS,oA:-m*O`BsvpEBiI,NBB?*F51
     P116h8d  C2020 09 16.FQ$0oh=V]^pD+!MkwFhmkd7nK?6m^uU*LYnu!1Q8IH\T#0F0hHRF51
     P116h8d  C2020 09 16_J#X;K6Fb:o7;iTPkj^nT^neLAYUk63`;)vv*86yP+%s9/d*nX^,F51
     P116h8d  C2020 09 16IYwDl,6(tPD#'@-s0`#;fvUO:9wrw*S!cPE/6570f5hm/u@s\Di@F51
     P116h8d  C2020 09 16DQ[7)-43:iPDi_[$PkD@YkO/2#EVl!P6R1M[s;H3_xXN]9Rh^Q.rF51
     P116h8d KC2020 09 17B7'T:d,';v3L#Iysq3XJk,a^8OBi7:fOutCU_P\p*s#j95n^AVB3711
     P116h8d KC2020 09 17+WC3wL.qoVE0LJ70Cqghd\Hw8D0xAuOG86VFVWB[H,Xss]u7_rO]711
     P116h8d KC2020 09 17\'y$Ov#g2tw36-j2hl!ek!f8a8BDNICRL))m;WjNGxrY@dQA)BC+711
     P116h8d ^C2020 09 17.36967023 16 46.606+06 53 12.48   ~9IBq 20.78GVNEOCP568
     P116h8d ^C2020 09 17.37084823 16 46.552+06 53 12.54   ~9IBq 20.82GVNEOCP568
     P116h8d ^C2020 09 17.37202823 16 46.498+06 53 12.58   ~9IBq 20.79GVNEOCP568
     P116h8d 1C2020 09 17b5lTWj)[h5;:D.4Vxb#P5]qShl7e5BM%i(\3eq!2s1J-gIj-8'$lQ62
     P116h8d 1C2020 09 17pJ)[`%b?nD!(/s]d+y]#D)ZGNg`UE,Ko5`/nINcm*EWW\ub\2Y9VQ62
     P116h8d KC2020 09 18s#j:=_IK/^f-5GJ\QI9.+hJg][VT4DIQD.UJqm66%]J;hs/v%wFx711
     P116h8d KC2020 09 18^'T^6B\_N'G)+?vu/wFGo4u$ddFHN.`Qw#YX$bcC8^R58R7af2fP711
     P116h8d KC2020 09 182ho2Bq:PXX[U[:3`VP]ohj^ZBuA/a-9MO.`qZH8Y]GnR4T.8W,\f711
     P116h8d KC2020 09 18$kagSo'xi@pIur;T/HaPWpnIMT+Ctc5\Qh+XH)!CSKK@L[]NBg_lL01
     P116h8d KC2020 09 186.tjm=?WR!.t,@wiA@CF8nAd)$lERr5`FZ.dyepsk`mB)4L5TuVrL01
     P116h8d KC2020 09 18$4d^Y1oWW)eA(*8\W]vJ%%8uRMO')!_=?DQ6Um2)2.epGM7CQpHiL01
     P116h8d KC2020 09 18kTqt[uAr:?#Pt#w``cHKYHL,9o]/q'xN;RI\JU'HO^FjD/8Ii;uOL01
     P116h8d 2C2020 09 19TDgHrvFG7xJN#h)*73C7#gokCdfMs1:7'bcWb0n:5B=#n9E_pf`?F65
     P116h8d 2C2020 09 191]^x0Wc$HDf1!(vIC1F:hL]?;vi\6.mtlE*#bcK,)]a231UDWo2]F65
     P116h8d 2C2020 09 19fI[Fk=\Se00o#MX)Ya@usS,(w=RcT3Vy3!qI.\Z.FOfsao-H5(vBF65
     P116h8d 2C2020 09 19hX?_0(9(oI(($SR252u5;;/Vd$yxTAf3:Kwvlgbtk;LW*8R?-G(cF65
     P116h8d 2C2020 09 191xBdvv_bcyg;P_ABL]qxCO\[[!C)^,:\NYY%uBr=]HXjO;`9]OusF65
     P116h8d  C2020 09 22eQn5HbqQA*V:x2C6ZEn$N0dO#XyuC*77s9TjjOuiUyUxi5w]mLm2F51
     P116h8d  C2020 09 22Uq43J/W.H'9q^,F^u!7+S@Qd4W1F2(4y,CV:wYAj5mNAm3qI$+v-F51
     P116h8d  C2020 09 22oddPcx*Iu:drs_c/Rk*$!I]W%hTg7+=)6Z[@*WZHO.-l=:^G:#=yF51
     P116h8d  C2020 09 22ZvA4cX-oPj+0K%n(92G$$f23COf#%.lifS8Cw'nOQolc=pA[h8!KF51
     P116h8d  C2020 09 24D)7.yHwf!i\Df=lBmC89`Uc(jQ@l+Ej46Fv6nNVo=lm*0:LW]pDsE10
     P116h8d  C2020 09 243dd0IE]5!Y%o-5?%(f/l5ITs',BEJvUsA0001C6Z+Ky0-fsyF.dOE10
     P116h8d  C2020 09 24D5C_xy2scB*tft.qE.[SNT,t/9Y^?Wtv3tSFnBRjbLy3KanX5HecE10
     P116h8d  C2020 09 24eNx2vU`r/Nlct:%pFJ3LIFxdoVy=A\I?4\;ivgSJYxNuINy\!(yfE10
     P116h8d  C2020 09 24w/?o+\+TU@jpcg]kp2DxbmMaO(1[*cjJXO`=*;]Nredacted;1!oE10
     P116h8d  C2020 09 24H=ar*+KFxxa'Z%8;0U_435t+s5BGC=H;XtEcEE;w,vW24LBj20W!E10
     P116h8d  C2020 09 24*t?_u?(lACJ;Bg;g\8tXJ`Gv(kb8cv?7;X34`%/^*$K?H.2v@\\AE10
     P116h8d KC2020 10 04.13491623 05 28.67 +06 54 58.6    ~A43q 21.46GVNEOCPI52
     P116h8d KC2020 10 04.14150623 05 28.39 +06 54 57.5    ~A43q 21.91GVNEOCPI52
     P116h8d KC2020 10 04.14776623 05 28.23 +06 54 58.3    ~A43q 20.87GVNEOCPI52
     P116h8d  C2020 10 0822u0i^,bvG@c5BDyRBG:.CZjYwhQ-Wj9?f:_))@KM8RO7^K^xY[XF52
     P116h8d ^C2020 10 09.48767 23 02 37.853+06 53 37.42   ~A9Nq 20.79GVNEOCP568
     P116h8d ^C2020 10 09.48899 23 02 37.834+06 53 37.50   ~A9Nq 21.06GVNEOCP568
     P116h8d KC2020 10 13#:4Z7#1x4!7TclickA+mJ4gPa\k=@pVrPkP-,?gwByv0Tgvsf-S*711
     P116h8d KC2020 10 13I3fn+`d;Xn,c8(ij$Bf4wSSMsM4L2]:RQy9o:KdF4f9pU)NRI=OJ711
     P116h8d IC2020 10 13)C)qIoTcH_;TVfWU^p%nyTFHqO$AQa4Xg*f+,%GG4$3R[Bk+H_^V711
     P116h8d *C2020 10 13_`'4dH?@S8-7Y8C^`Drhere2%STJ^V/B2n(9\F;![T?CFR[C6uhcE10
     P116h8d *C2020 10 139Bl.l*eULQ#.k_U`:[vnT?n,8wvZ:i466B\@-7G_nU*-dDG@oT_;E10
     P116h8d *C2020 10 13:0l6j,Y$Bo$6.o]G=8+$WO%WJte/lIL9lXsJThK2X3[;4R.sVe5vE10
     P116h8d KC2020 10 13Lda\VB_Yny%'LP5:UHMB]h06P)F;+\kXFSnOS[w,;XXEnMTpvSB,K51
     P116h8d KC2020 10 13isijhtLZ,LgN.dm:%LM$@TX6.TCP:gI)W8W]L/9r]UZ!HuZt^n0*K51
     P116h8d KC2020 10 13JNn;r!LdY/6QOIU**W,Yk[5POEF4cK1i1)k]m$F)/d22?P#OB^LgK51
     P116h8d KC2020 10 14cLUwq8A\forA2sij?Ly)_1#U(-X1)pPU8m\mtY?f!afuP0:#cxbu711
     P116h8d KC2020 10 14!qWbPhlrG8f)`:=%qZg8/rHJu27aW.r?8`1933+SpkGgJM_+nQ:@711
     P116h8d KC2020 10 14y;et,Qoxq-_explanation\LI`%@QaV-;!Q/B+N7pHxwTGu%T4a/711
     P116h8d KC2020 10 15:eos+yFV,GKbx[^)cOTeMQ?tD);`l/Ka)0;(VL5WwwVX[9A0ma8D711
     P116h8d KC2020 10 15f%%ot?a)j2T;dj*BA'RTkO96r7=_vT6;p@_r,mjGW4QSV2+d(Q9c711
     P116h8d KC2020 10 15jP['Gtxw)48y.QK;Dp!*n/:ZnX=ErZiH;KIjIFs78rFiwa3m#hRK711
     P116h8d KC2020 10 18wF`F%WEQ75S,:vco:A)s;p@s^rx6s^\Ro')`p\m08CM:9(T4(7-DA71
     P116h8d KC2020 10 18-N=E;5MTq%#Sbd#xW46aPmi^\Luip\=g\r\qEjC%nvgXyfigVC)aA71
     P116h8d KC2020 10 18kLEMxuH14im`?+pbdd8RvkreY(ciThi'AwC)e3wK9p1cXu(p'$;SA71
     P116h8d ^C2020 10 20.28855722 58 33.202+06 51 39.85   ~AK7q 20.73GVNEOCP568
     P116h8d ^C2020 10 20.29008622 58 33.175+06 51 39.83   ~AK7q 20.84GVNEOCP568
     P116h8d ^C2020 10 20.29161322 58 33.147+06 51 39.84   ~AK7q 20.93GVNEOCP568

Station data:
(568) Mauna Kea  (N19.826116 W155.472200)  US/Hawaii.
(711) McDonald Observatory, Fort Davis  (N30.671481 W104.021500)  US/Texas.
   0.76-m f/3.0 reflector.
(A71) Stixendorf  (N48.428775 E15.453300)  Austria.
(D29) Purple Mountain Observatory, XuYi Station  (N32.734366 E118.463900)
   China.  Observers H. B. Zhao, B. Li, G. Zhaori, R. Q. Hong, L. F. Hu.
   Measurers H. B. Zhao, B. Li. H. Lu, G. Zhaori. 1.04-m f/1.8 Schmidt + CCD.
(E10) Siding Spring-Faulkes Telescope South  (S31.273173 E149.070280)
   Australia/NSW.
(F51) Pan-STARRS 1, Haleakala  (N20.707235 W156.255910)  US/Hawaii.
   Observers N. Primak, A. Schultz, S. Watters, J. Thiel, T. Goggia. Measurer
   PS1 Science Consortium. 1.8-m Ritchey-Chrétien + CCD.
(F52) Pan-STARRS 2, Haleakala  (N20.707384 W156.255910)  US/Hawaii. 1.8-m
   Ritchey-Chrétien + CCD.
(F65) Haleakala-Faulkes Telescope North  (N20.707094 W156.257600)  US/Hawaii.
   2.0-m Faulkes Telescope North.
(G96) Mt. Lemmon Survey  (N32.442754 W110.788720)  US/Arizona.  Observers T.
   A. Pruyne, B. M. Africano, E. J. Christensen, G. A. Farneth, D. C. Fuls,
   A. R. Gibbs, A. D. Grauer, H. Gröller, J. A. Johnson, R. A. Kowalski, S.
   M. Larson, G. J. Leonard, D. Rankin, R. L. Seaman, F. C. Shelly. 1.5-m
   reflector + 10K CCD.
(I52) Steward Observatory, Mt. Lemmon Station  (N32.442547 W110.788920)
   US/Arizona.  Observers T. A. Pruyne, B. M. Africano, E. J. Christensen, G.
   A. Farneth, D. C. Fuls, A. R. Gibbs, A. D. Grauer, H. Gröller, J. A.
   Johnson, R. A. Kowalski, S. M. Larson, G. J. Leonard, D. Rankin, R. L.
   Seaman, F. C. Shelly. 1.0-m reflector + CCD.
(K51) Osservatorio del Celado, Castello Tesino  (N46.029412 E11.657900)
   Italy.
(L01) Višnjan Observatory, Tičan  (N45.290900 E13.749300)  Croatia.
   Observers K. Korlević, E. Pettarin. Measurer E. Pettarin. 1.0-m f/2.9
   reflector + CCD.
(Q62) iTelescope Observatory, Siding Spring  (S31.273289 E149.064420)
   Australia/NSW. 0.50-m f/6.8 astrograph + CCD + focal reducer, 0.70-m f/6.6
   astrograph + CCD.

Orbital elements:  P116h8d
   Perihelion 2020 Nov 18.161993 +/- 0.0744 TT =  3:53:16 (JD 2459171.661993)
Epoch 2020 Oct 20.0 TT = JDT 2459142.5   Ju: 0.3377           AutoNEOCP
M 357.44755636 +/- 0.006            (J2000 ecliptic)
n   0.08752637 +/- 6.69e-6          Peri.   40.42986 +/- 0.020
a   5.02392808 +/- 0.000256         Node   328.01614 +/- 0.0028
e   0.4106627 +/- 4.76e-5           Incl.   16.09038 +/- 0.0021
P  11.26                   H 16.8   G  0.15   U  4.8  
q 2.96078776 +/- 0.000272    Q 7.08706841 +/- 0.00045
From 83 observations 2020 Aug. 22-Oct. 20; mean residual 0".44
Residuals in arcseconds: 
200822 F52  .10-  .41-    200917 568  .09-  .08+    201004 I52  .25+  .50+    
200822 F52  .34+  .10-    200917 568  .08-  .09+    201004 I52  .42-  .53-    
200822 F52  .01+  .09+    200917 568  .08-  .09+    201004 I52  .54+  .35+    
200911 G96  .39-  .43+    200917 Q62  .22+  .24-    201008 F52  .13+  .38-    
200911 G96  .14-  .57-    200917 Q62  .27+  .24-    201009 568  .18-  .20-    
200911 G96  .32-  .46-    200918 711  2.1+  .03+    201009 568  .13+  .09-    
